Chanute, KS

6:27 AM CST on February 24, 2018 (GMT -0600)
Chanute Martin Johnson

Weather History for KCNU - October, 2013

Change the Weather History Date:

Thursday, October 3, 2013

  Actual Average Record
Temperature  
Mean Temperature 77 °F 62 °F  
Max Temperature 85 °F 74 °F 95 °F (2006)
Min Temperature 69 °F 51 °F 33 °F (1987)
Degree Days  
Heating Degree Days 0 5  
Month to date heating degree days 0 13  
Since 1 July heating degree days 16 60  
Cooling Degree Days 12 2  
Month to date cooling degree days 27 6  
Year to date cooling degree days 1548 1503  
Growing Degree Days 26 (Base 50)    
Moisture  
Dew Point 67 °F    
Average Humidity 77    
Maximum Humidity 90    
Minimum Humidity 63    
Precipitation  
Precipitation 0.00 in 0.15 in 6.66 in (1986)
Month to date precipitation 0.00 0.45  
Year to date precipitation 38.64 34.61  
Sea Level Pressure  
Sea Level Pressure 29.82 in    
Wind  
Wind Speed 15 mph (SSE)    
Max Wind Speed 26 mph    
Max Gust Speed 32 mph    
Visibility 10 miles    
Events      
T = Trace of Precipitation, MM = Missing Value Source: NWS Daily Summary

Daily Weather History Graph

Daily Weather History Graph

Search for Another Location

Airport or City:

Trip Planner

Search our weather history database for the weather conditions in past years. The results will help you decide how hot, cold, wet, or windy it might be!

Date:

Astronomy

Oct. 03, 2013 Rise Set
Actual Time 7:19 AM CDT 7:01 PM CDT
Civil Twilight 6:53 AM CDT 7:27 PM CDT
Nautical Twilight 6:23 AM CDT 7:58 PM CDT
Astronomical Twilight 5:52 AM CDT 8:28 PM CDT
Moon 5:54 AM CDT (10/3) 6:10 PM CDT (10/3)
Length of Visible Light 12h 34m
Length of Day
11h 42m
Waning Crescent, 2% of the Moon is Illuminated
Oct 3
Waning Crescent
Oct 4
New
Oct 11
First Quarter
Oct 18
Full
Oct 26
Last Quarter

Hourly Weather History & Observations

Time (CDT) Temp. Heat Index Dew Point Humidity Pressure Visibility Wind Dir Wind Speed Gust Speed Precip Events Conditions
12:52 AM 73.0 °F - 66.0 °F 79% 29.86 in 10.0 mi South 11.5 mph - N/A   Clear
1:52 AM 72.0 °F - 66.0 °F 81% 29.85 in 10.0 mi South 11.5 mph - N/A   Clear
2:52 AM 71.1 °F - 66.0 °F 84% 29.85 in 10.0 mi SSE 8.1 mph - N/A   Clear
3:52 AM 70.0 °F - 66.0 °F 87% 29.84 in 10.0 mi South 8.1 mph - N/A   Mostly Cloudy
4:52 AM 70.0 °F - 66.0 °F 87% 29.84 in 10.0 mi South 9.2 mph - N/A   Clear
5:52 AM 70.0 °F - 66.0 °F 87% 29.84 in 10.0 mi SSE 10.4 mph - N/A   Scattered Clouds
6:00 AM 69.8 °F - 66.2 °F 88% 29.87 in 10.0 mi SSE 10.4 mph - N/A   Mostly Cloudy
6:12 AM 69.8 °F - 66.2 °F 88% 29.86 in 10.0 mi SSE 10.4 mph - N/A   Scattered Clouds
6:43 AM 69.8 °F - 66.2 °F 88% 29.87 in 10.0 mi SSE 10.4 mph - N/A   Mostly Cloudy
6:52 AM 69.1 °F - 66.0 °F 90% 29.84 in 10.0 mi SSE 11.5 mph - N/A   Mostly Cloudy
7:52 AM 70.0 °F - 66.9 °F 90% 29.84 in 10.0 mi SSE 10.4 mph - N/A   Overcast
7:58 AM 69.8 °F - 66.2 °F 88% 29.87 in 10.0 mi SSE 9.2 mph - N/A   Overcast
8:08 AM 69.8 °F - 66.2 °F 88% 29.87 in 10.0 mi SSE 12.7 mph - N/A   Overcast
8:52 AM 72.0 °F - 68.0 °F 87% 29.84 in 10.0 mi SSE 16.1 mph - N/A   Overcast
9:52 AM 75.0 °F - 68.0 °F 79% 29.84 in 10.0 mi South 13.8 mph 24.2 mph N/A   Mostly Cloudy
10:23 AM 75.2 °F - 69.8 °F 83% 29.87 in 10.0 mi South 18.4 mph 23.0 mph N/A   Overcast
10:52 AM 77.0 °F - 69.1 °F 76% 29.83 in 10.0 mi South 20.7 mph 27.6 mph N/A   Mostly Cloudy
11:52 AM 80.1 °F 82.9 °F 69.1 °F 69% 29.82 in 10.0 mi South 21.9 mph 29.9 mph N/A   Overcast
12:52 PM 81.0 °F 84.1 °F 69.1 °F 67% 29.81 in 10.0 mi South 17.3 mph 26.5 mph N/A   Overcast
1:28 PM 82.4 °F 86.3 °F 69.8 °F 66% 29.83 in 10.0 mi South 17.3 mph 25.3 mph N/A   Scattered Clouds
1:52 PM 82.9 °F 86.5 °F 69.1 °F 63% 29.79 in 10.0 mi South 23.0 mph 29.9 mph N/A   Partly Cloudy
2:52 PM 82.0 °F 85.5 °F 69.1 °F 65% 29.76 in 10.0 mi South 17.3 mph 27.6 mph N/A   Mostly Cloudy
3:52 PM 82.9 °F 85.8 °F 68.0 °F 60% 29.75 in 10.0 mi South 23.0 mph 28.8 mph N/A   Partly Cloudy
4:52 PM 82.9 °F 86.5 °F 69.1 °F 63% 29.74 in 10.0 mi South 19.6 mph 27.6 mph N/A   Mostly Cloudy
5:52 PM 82.0 °F 84.9 °F 68.0 °F 62% 29.74 in 10.0 mi SSE 18.4 mph 26.5 mph N/A   Mostly Cloudy
6:52 PM 79.0 °F - 68.0 °F 69% 29.75 in 10.0 mi SSE 11.5 mph - N/A   Partly Cloudy
7:52 PM 77.0 °F - 68.0 °F 74% 29.75 in 10.0 mi SSE 15.0 mph - N/A   Clear
8:52 PM 75.9 °F - 66.9 °F 74% 29.77 in 10.0 mi SSE 12.7 mph 21.9 mph N/A   Clear
9:52 PM 73.9 °F - 66.9 °F 79% 29.78 in 10.0 mi SSE 16.1 mph - N/A   Clear
11:52 PM 73.0 °F - 66.9 °F 81% 29.79 in 10.0 mi SSE 12.7 mph - N/A   Clear